Location: Dallas
(32.7833°N, 96.8000°W)
Time: 00:15:00
(UTC-06:00)

Envisat - Pass Details

Date: 25 January 2021
Orbit: 764 x 766 km, 98.1° (Epoch: 06 March)

Event Time Altitude Azimuth Distance (km) Brightness Sun altitude
Rises 18:07:32 0° 189° (S) 3,216 6.7 -3.6°
Reaches altitude 10° 18:10:02 10° 199° (SSW) 2,294 6.1 -4.1°
Maximum altitude 18:14:33 33° 262° (W) 1,268 5.1 -5.0°
Drops below altitude 10° 18:19:07 10° 326° (NNW) 2,306 5.7 -5.9°
Sets 18:21:39 0° 336° (NNW) 3,236 6.3 -6.4°
